Probability
11 13 15 17 21 22 24 27 29 28 29 30 30 28 27 26 25 25 25 24 20 17 15 14 12 10 9 8 7 6 6 5 6 6 4 3 3 3 4 4 4 3 3
13 14 16 20 25 27 27 29 31 30 29 29 28 26 25 25 25 25 25 24 22 20 18 16 13 11 10 9 7 7 6 5 5 5 4 3 3 3 3 4 4 3 2
13 14 16 21 26 29 31 31 32 31 30 29 27 25 24 24 23 23 23 23 24 24 22 18 15 12 10 9 8 7 6 6 5 5 4 3 3 3 3 3 3 2 1
12 14 17 19 23 27 30 31 31 31 30 30 28 26 25 24 22 21 22 22 23 23 22 19 16 13 11 9 7 7 7 7 7 6 5 4 3 3 2 1 1 0 0
12 14 17 19 21 24 27 28 28 29 29 30 28 27 25 24 22 20 20 21 22 21 20 18 15 13 11 8 7 6 7 7 8 9 7 5 3 2 1 0 0 0 0
12 13 15 16 17 21 23 24 24 26 28 28 27 26 24 22 21 19 18 18 19 20 18 16 14 13 11 10 8 7 7 8 8 9 8 6 4 2 0 1 1 1 1
12 13 13 13 15 18 21 21 22 24 25 24 23 23 23 21 18 17 16 16 17 18 18 15 14 13 12 11 10 9 8 8 7 7 7 6 5 3 1 1 2 2 2
10 12 13 14 15 18 21 22 23 23 21 19 18 20 22 21 18 17 16 16 17 18 18 16 14 13 13 12 10 9 8 6 5 5 4 4 4 3 2 1 1 1 1
6 9 12 14 16 18 22 24 22 21 19 16 15 16 18 18 17 16 16 16 16 17 17 16 14 12 13 12 9 8 6 4 3 3 3 3 3 3 2 1 0 0 0
4 7 10 13 16 18 20 22 20 18 16 14 12 12 13 13 13 13 14 14 14 15 15 15 14 13 12 11 9 8 6 5 3 3 3 3 3 3 2 1 1 1 1
5 6 7 11 13 15 17 19 18 15 13 12 11 10 10 10 10 10 11 11 12 13 14 14 13 13 12 11 10 9 8 6 5 4 4 3 3 2 1 1 2 2 2
7 5 6 8 10 12 14 17 16 14 12 12 11 10 9 8 8 8 8 8 8 8 9 10 10 11 11 10 9 9 9 7 6 5 4 3 2 1 1 1 2 2 2
6 6 5 6 9 12 14 16 15 13 13 13 12 10 8 5 4 4 5 5 5 4 4 5 7 8 8 8 7 7 7 6 5 4 3 2 1 0 0 1 1 1 1
5 6 6 7 10 13 14 15 15 14 14 13 11 9 6 3 1 1 1 2 3 2 1 2 4 5 6 5 5 5 6 5 4 2 1 1 0 0 0 0 0 0 0
6 6 8 9 11 13 13 14 16 17 15 13 10 7 4 3 2 1 1 1 2 3 1 1 2 4 4 3 3 4 4 4 3 1 0 0 0 0 0 0 0 0 0
7 7 9 12 12 13 13 15 18 18 15 13 10 7 4 3 3 3 2 2 3 4 3 1 1 3 3 2 1 2 3 3 2 1 0 0 0 0 0 0 0 0 0
6 7 10 12 12 12 12 13 15 15 14 13 10 6 4 3 3 3 3 3 4 5 5 3 2 3 3 1 0 1 2 2 2 1 1 0 0 0 0 0 0 0 0
5 7 9 11 11 11 10 11 12 12 12 12 10 6 4 4 3 3 3 3 4 6 6 4 3 3 2 1 0 0 1 2 3 3 2 1 0 0 0 0 0 0 0
4 6 9 11 11 9 9 10 11 12 12 11 10 7 5 4 4 3 3 3 4 6 6 4 3 3 3 1 0 0 1 2 3 3 2 1 0 0 0 0 0 0 0
4 6 9 11 10 8 8 9 11 11 11 10 8 6 4 4 3 3 3 3 4 6 6 4 3 3 3 2 1 0 0 1 3 3 2 1 0 0 0 0 0 0 0
4 7 9 9 8 7 7 8 9 10 10 9 6 4 4 3 3 3 3 3 4 5 5 4 3 3 3 3 1 0 0 1 2 2 2 1 0 0 0 0 0 0 0
4 7 9 8 6 6 6 6 6 7 7 6 5 4 4 3 3 3 3 3 4 5 4 3 2 2 2 2 1 0 0 0 1 1 1 0 0 0 0 0 0 0 0
4 5 6 5 4 4 5 4 3 3 4 4 4 4 3 3 3 3 3 3 3 3 2 1 1 1 1 1 1 0 0 0 0 0 0 0 0 0 0 0 0 0 0
4 4 4 4 4 3 3 2 1 0 1 2 3 3 3 3 3 3 2 2 1 1 1 0 0 0 0 0 0 0 0 0 0 0 0 0 0 0 0 0 0 0 0
4 5 5 5 5 4 2 1 0 0 0 2 3 3 3 3 2 1 1 1 0 0 0 0 0 0 0 0 0 0 0 0 0 0 0 0 0 0 0 0 0 0 0
5 6 6 6 6 5 2 1 0 0 1 2 2 3 3 3 1 0 0 0 0 0 0 0 0 0 0 0 0 0 0 0 0 0 0 0 0 0 0 0 0 0 0
Wind_Speed
5 6 7 8 8 7 8 9 9 8 6 5 5 4 4 3 3 3 5 7 6 6 5 4 3 3 3 3 3 2 2 1 1 1 1 2 2 2 2 2 2 3 4
4 5 6 7 8 8 8 8 8 8 7 5 5 4 4 4 4 3 4 6 6 6 6 5 4 4 3 3 3 2 2 1 1 2 1 1 3 2 2 2 3 4 3
9 8 7 8 8 8 8 8 8 8 7 5 3 3 2 1 1 3 3 5 6 6 6 6 5 4 4 4 3 3 3 2 1 2 3 2 3 2 2 2 3 3 3
9 9 8 8 8 7 7 6 6 7 6 7 6 6 5 4 4 4 3 3 4 5 5 6 5 5 4 4 4 4 3 3 2 1 1 2 3 2 1 3 2 2 3
8 9 9 9 7 7 6 5 5 5 5 6 7 7 5 4 2 3 4 4 3 4 4 5 5 5 4 4 4 3 3 3 3 2 2 1 0 1 2 2 2 2 2
5 7 7 7 6 6 6 5 5 4 4 5 6 6 6 5 4 4 4 4 2 3 4 4 4 4 4 4 4 4 4 3 3 3 2 2 2 2 2 2 2 2 3
5 6 7 7 7 7 7 6 6 4 4 5 5 5 6 6 6 5 5 4 2 2 4 4 4 4 4 4 4 4 4 4 4 4 3 3 2 2 2 2 2 2 2
4 5 7 7 7 8 8 7 7 5 5 5 4 4 5 4 4 4 4 4 3 3 4 4 4 4 4 4 4 3 3 3 3 4 4 2 3 3 3 3 3 1 2
3 4 5 6 7 7 8 8 8 6 5 5 4 4 4 4 4 4 3 3 3 3 3 3 3 3 4 4 4 3 4 4 4 4 4 3 3 3 3 3 3 3 2
2 4 5 5 5 6 6 6 6 6 4 5 5 4 4 4 4 3 4 3 3 3 3 3 4 3 3 3 3 3 3 3 4 3 4 4 3 3 3 3 3 3 4
3 3 4 5 5 4 5 5 5 5 4 4 4 4 3 3 3 3 4 3 3 3 3 4 4 3 3 3 3 3 4 4 4 3 4 4 3 3 3 2 2 3 3
2 3 4 5 4 5 5 5 5 5 5 5 4 4 3 3 3 3 3 3 3 3 3 3 3 3 3 3 4 4 4 4 4 4 4 4 3 3 3 3 3 3 3
2 2 2 3 3 3 4 4 5 5 5 5 4 4 3 3 3 3 2 3 3 3 3 3 3 4 4 4 4 4 4 4 5 5 5 5 4 4 3 3 3 3 3
2 2 2 3 3 3 3 4 4 4 5 5 5 4 4 4 3 3 3 3 3 3 3 3 4 4 4 4 4 3 3 4 4 4 5 5 5 5 5 4 4 3 2
2 2 1 2 3 3 3 3 3 3 4 5 5 5 4 3 3 3 3 3 3 3 3 3 3 4 4 4 4 4 4 4 4 4 4 4 5 6 5 4 4 3 2
1 1 1 2 2 2 3 3 3 3 4 4 5 4 3 3 3 3 3 3 3 3 3 3 3 3 3 3 4 3 3 3 4 4 4 4 4 5 5 6 6 6 4
1 2 2 2 2 2 3 4 4 4 4 4 3 3 3 3 3 3 2 3 3 3 3 3 3 3 4 4 4 4 3 3 4 4 3 3 3 3 3 4 5 6 7
1 1 1 1 2 2 2 3 3 4 5 4 3 3 3 3 3 3 3 3 3 3 3 3 4 3 4 5 5 4 3 3 3 4 4 4 3 3 3 3 3 4 5
2 2 1 1 1 1 2 3 3 3 4 3 3 4 4 3 3 3 3 3 2 3 3 3 3 4 4 5 5 4 2 2 3 3 4 4 4 5 5 3 3 4 4
1 1 0 1 1 1 2 3 3 3 3 3 3 3 4 4 4 4 3 2 3 3 3 3 3 4 4 5 5 5 2 2 2 3 3 5 5 5 5 4 4 5 5
1 1 1 1 1 1 2 3 3 2 2 2 2 2 2 3 3 3 2 2 2 2 2 2 2 3 4 5 5 5 3 3 3 3 3 3 5 5 6 5 5 7 5
1 1 2 1 1 1 2 2 1 1 1 1 1 1 1 2 2 2 2 2 2 2 2 2 2 2 3 3 4 6 6 4 3 3 3 3 5 5 6 5 6 7 4
1 1 2 1 2 1 1 1 1 0 1 1 1 1 0 1 1 2 2 2 2 2 1 1 2 2 2 2 3 5 5 5 3 3 5 5 5 5 4 6 6 5 3
2 1 1 2 1 2 1 0 1 1 2 1 1 1 1 1 0 0 1 2 2 2 2 2 2 2 2 2 2 2 2 3 3 3 4 5 5 4 4 3 3 3 3
1 2 2 1 0 1 1 1 1 1 2 1 0 0 0 1 1 0 1 2 3 4 4 4 3 3 3 5 5 3 3 3 3 2 1 1 1 1 2 2 2 2 2
2 2 2 1 0 1 1 1 1 1 2 1 0 0 0 0 1 1 1 2 3 4 5 6 5 4 6 5 5 5 4 4 3 2 2 2 3 3 3 3 3 3 3
Wind_Direction
170 150 152 151 147 151 156 162 164 169 161 160 161 166 179 185 188 193 185 183 183 179 175 181 179 179 183 186 172 161 169 206 158 90 335 313 275 237 224 210 205 211 209
141 148 148 148 152 157 159 160 163 166 170 176 174 175 171 180 182 192 192 189 183 180 184 178 182 184 177 174 172 156 156 199 154 134 106 334 328 310 239 203 200 209 208
162 162 159 159 156 160 165 168 170 168 170 165 147 125 103 97 148 186 199 199 188 183 181 182 181 182 178 188 189 173 169 184 204 157 147 161 230 288 306 250 218 204 202
165 163 162 159 163 165 161 161 166 164 167 160 162 165 175 183 195 187 191 192 188 184 181 182 179 179 182 187 192 181 178 162 183 217 195 183 168 167 288 313 285 230 216
172 169 171 170 165 155 150 151 158 161 164 167 170 169 175 182 171 163 167 178 190 188 182 181 175 177 183 187 186 180 182 174 175 184 186 190 178 166 163 259 297 303 258
165 169 168 156 148 147 141 144 150 155 162 167 173 175 177 174 165 172 176 184 187 189 188 180 176 178 184 190 190 188 187 185 178 183 180 172 176 199 176 209 247 260 271
157 159 154 156 157 154 149 153 155 155 163 164 168 173 172 169 174 178 179 181 183 194 202 191 185 186 188 188 182 185 194 191 188 195 199 194 197 187 178 182 219 249 277
148 160 164 163 163 163 162 163 165 163 170 173 174 168 166 168 175 177 175 182 188 197 194 181 183 188 185 187 183 189 200 194 203 212 205 202 210 197 190 184 177 228 278
149 161 166 164 166 169 171 170 170 170 176 177 168 163 165 164 166 167 167 176 176 181 177 176 180 184 185 190 185 196 205 198 206 215 215 216 220 212 209 196 183 181 223
160 157 161 167 172 175 174 166 163 170 172 174 171 169 169 168 166 163 173 172 173 176 168 176 184 189 191 194 190 203 212 206 215 212 210 217 219 219 215 209 202 188 190
175 161 169 176 173 166 166 166 167 159 169 183 170 159 171 171 161 167 178 175 169 172 177 182 189 201 199 191 186 210 210 208 219 221 213 224 217 218 221 211 200 202 190
163 163 170 167 169 166 170 172 170 169 177 178 167 163 161 163 168 179 186 175 174 181 180 175 184 210 210 201 198 212 217 216 221 223 216 226 222 218 218 209 211 209 204
119 122 132 148 165 172 174 169 172 178 176 166 163 162 167 168 177 188 189 185 184 188 186 178 190 214 219 213 214 213 220 222 223 219 214 221 210 219 217 208 211 214 216
126 117 133 159 167 173 173 173 179 177 171 164 164 173 183 184 188 190 191 192 190 192 198 199 203 207 210 217 219 214 214 221 228 228 224 219 209 213 213 212 215 209 207
108 107 142 161 154 155 170 176 182 173 173 166 172 184 187 185 182 188 203 206 203 203 201 200 208 209 211 218 216 216 220 224 233 239 237 231 225 220 214 212 207 198 200
146 134 146 147 148 159 173 177 183 169 163 172 181 180 177 183 190 197 204 210 214 213 203 204 205 213 226 233 226 220 218 223 226 239 246 241 238 237 229 223 213 197 195
171 173 191 182 183 195 196 187 186 171 161 171 176 177 179 186 198 198 193 206 211 205 211 215 210 219 229 221 228 243 230 231 232 232 233 240 240 230 232 234 229 225 221
249 213 208 230 233 213 199 188 169 162 165 173 181 185 182 194 202 195 201 212 204 203 213 219 221 224 230 218 227 241 232 237 242 229 217 214 230 231 218 228 237 240 239
241 245 217 204 228 172 154 142 140 156 164 178 190 194 190 192 195 202 213 217 204 211 216 219 218 223 236 228 233 228 221 235 251 246 228 215 222 237 224 216 238 255 260
196 204 345 79 109 136 127 129 142 155 177 190 197 197 190 191 202 210 213 209 204 214 217 231 231 223 232 232 230 217 207 233 257 268 251 230 228 241 230 213 219 245 255
163 140 113 109 121 116 110 125 130 167 195 186 188 195 198 204 204 203 209 202 208 212 220 234 249 238 235 236 229 210 205 221 242 253 256 246 239 244 241 232 226 236 246
89 109 106 61 9 103 116 126 168 214 178 155 178 194 212 229 212 203 213 209 201 203 215 226 264 267 248 233 231 218 220 218 223 246 250 252 250 249 247 240 243 246 248
148 120 117 79 5 18 113 138 238 175 126 118 149 189 180 261 226 199 198 198 183 175 202 214 239 264 270 264 251 241 234 229 228 247 256 261 254 250 248 246 247 240 227
162 140 119 93 21 337 15 26 286 140 119 137 192 211 155 200 305 218 191 185 189 187 203 212 229 247 254 254 252 248 245 249 245 258 272 271 260 252 251 257 253 233 219
175 141 144 141 199 305 346 344 1 99 112 108 72 308 202 179 172 173 244 215 221 203 199 212 215 215 236 239 224 214 220 223 229 224 264 288 287 281 266 255 248 240 231
145 127 128 140 190 6 350 349 347 110 114 102 34 311 275 236 188 181 332 318 258 239 226 223 221 230 232 234 226 230 236 242 211 174 215 242 242 242 245 243 247 239 233